User: anonymous   Login
Location: Plymouth
(43.7570°N, 71.6890°W)
Time: 05:31:11
(UTC-04:00)
Language:

Meteor 1-28 Rocket - Orbit

View from above orbital plane
View from above orbital plane
View from above satellite
View from above satellite

Ground track
Ground track

The orbit data is extracted from the following two-line orbital elements,

1 10114U 77057B   17117.94148395 +.00000543 +00000-0 +30883-4 0  9991
2 10114 097.2002 302.7660 0015356 130.5571 229.7003 15.16685576175731
Epoch (UTC): 27 April 2017 22:35:44
Eccentricity: 0.0015356
inclination: 97.2002°
perigee height: 505 km
apogee height: 526 km
right ascension of ascending node: 302.7660°
argument of perigee: 130.5571°
revolutions per day: 15.16685576
mean anomaly at epoch: 229.7003°
orbit number at epoch: 17573

The dashed part of the orbit path shows where the satellite is in the earth's shadow,  

DLR